| time (UTC) | temp C | wind direction | speed KPH | gust KPH | rain 1hr cm | rain 24hr cm | rain mn cm | humidity % | barometer mb |
| 20260510190055 | 22 | 278 | 3.2 | 4.8 | 0.00 | 0.00 | 0.00 | 57 | 1011.9 |
| 20260510184555 | 22 | 248 | 1.6 | 3.2 | 0.00 | 0.00 | 0.00 | 57 | 1011.9 |
| 20260510183223 | 22 | 239 | 3.2 | 6.4 | 0.00 | 0.00 | 0.00 | 57 | 1011.9 |
| 20260510183054 | 22 | 239 | 3.2 | 6.4 | 0.00 | 0.00 | 0.00 | 57 | 1011.9 |
| 20260510181554 | 22 | 279 | 1.6 | 4.8 | 0.00 | 0.00 | 0.00 | 64 | 1011.9 |
| 20260510180055 | 22 | 194 | 3.2 | 4.8 | 0.08 | 0.00 | 0.00 | 63 | 1011.9 |
| 20260510174554 | 21 | 230 | 1.6 | 4.8 | 0.00 | 0.00 | 0.00 | 63 | 1011.8 |
| 20260510173056 | 22 | 128 | 1.6 | 3.2 | 0.00 | 0.00 | 0.00 | 66 | 1011.8 |
| 20260510172444 | 20 | 77 | 1.6 | 4.8 | 0.00 | 0.00 | 0.00 | 73 | 1012.4 |
| 20260510171554 | 21 | 96 | 3.2 | 3.2 | 0.00 | 0.00 | 0.00 | 70 | 1012.0 |
| 20260510170055 | 20 | 77 | 1.6 | 4.8 | 0.00 | 0.00 | 0.00 | 73 | 1012.4 |
| 20260510164555 | 20 | 91 | 3.2 | 4.8 | 0.00 | 0.00 | 0.00 | 75 | 1012.5 |
| 20260510163054 | 19 | 288 | 1.6 | 3.2 | 0.00 | 0.00 | 0.00 | 75 | 1012.7 |
| 20260510161554 | 18 | 79 | 3.2 | 6.4 | 0.00 | 0.00 | 0.00 | 82 | 1013.1 |
| 20260510160055 | 17 | 69 | 3.2 | 4.8 | 0.00 | 0.00 | 0.00 | 83 | 1013.0 |
| 20260510154554 | 16 | 73 | 3.2 | 4.8 | 0.00 | 0.00 | 0.00 | 87 | 1013.3 |
| 20260510153344 | 16 | 71 | 1.6 | 3.2 | 0.00 | 0.00 | 0.00 | 90 | 1013.4 |
| 20260510153055 | 16 | 71 | 1.6 | 3.2 | 0.00 | 0.00 | 0.00 | 90 | 1013.4 |
| 20260510151555 | 16 | 70 | 3.2 | 4.8 | 0.00 | 0.00 | 0.00 | 90 | 1013.5 |
| 20260510150152 | 15 | 58 | 1.6 | 3.2 | 0.00 | 0.00 | 0.00 | 93 | 1013.8 |
| 20260510150055 | 15 | 58 | 1.6 | 3.2 | 0.00 | 0.00 | 0.00 | 93 | 1013.8 |
| 20260510144555 | 15 | 57 | 3.2 | 8.0 | 0.00 | 0.00 | 0.00 | 94 | 1013.8 |
| 20260510143055 | 14 | 70 | 3.2 | 4.8 | 0.00 | 0.00 | 0.00 | 96 | 1013.9 |
| 20260510141554 | 13 | 115 | 1.6 | 3.2 | 0.00 | 0.00 | 0.00 | 97 | 1013.9 |
| 20260510140055 | 13 | 162 | 0.0 | 3.2 | 0.00 | 0.00 | 0.00 | 97 | 1013.9 |
| 20260510134555 | 13 | 92 | 0.0 | 1.6 | 0.00 | 0.00 | 0.00 | 100 | 1013.9 |
| 20260510133055 | 12 | 20 | 1.6 | 3.2 | 0.00 | 0.00 | 0.00 | 100 | 1013.9 |
| 20260510131555 | 12 | 55 | 1.6 | 1.6 | 0.00 | 0.00 | 0.00 | 100 | 1013.8 |
| 20260510130835 | 11 | 65 | 1.6 | 1.6 | 0.00 | 0.00 | 0.00 | 99 | 1013.6 |
| 20260510130055 | 12 | 69 | 0.0 | 1.6 | 0.00 | 0.00 | 0.00 | 99 | 1013.6 |
| 20260510124554 | 11 | 65 | 1.6 | 1.6 | 0.00 | 0.00 | 0.00 | 99 | 1013.6 |
| 20260510123158 | 11 | 0.0 | 0.0 | 0.00 | 0.00 | 0.00 | 99 | 1013.5 | |
| 20260510123055 | 11 | 0.0 | 0.0 | 0.00 | 0.00 | 0.00 | 99 | 1013.5 | |
| 20260510121554 | 11 | 72 | 0.0 | 1.6 | 0.00 | 0.00 | 0.00 | 99 | 1013.4 |
| 20260510120056 | 11 | 83 | 0.0 | 1.6 | 0.00 | 0.00 | 0.00 | 99 | 1013.1 |
| 20260510114554 | 11 | 94 | 0.0 | 1.6 | 0.00 | 0.00 | 0.00 | 99 | 1013.2 |
| 20260510113055 | 11 | 0.0 | 0.0 | 0.00 | 0.00 | 0.00 | 99 | 1013.0 | |
| 20260510111729 | 11 | 0.0 | 0.0 | 0.00 | 0.00 | 0.00 | 99 | 1012.8 | |
| 20260510111554 | 11 | 0.0 | 0.0 | 0.00 | 0.00 | 0.00 | 99 | 1012.8 | |
| 20260510110145 | 11 | 108 | 0.0 | 1.6 | 0.00 | 0.00 | 0.00 | 99 | 1012.7 |
| 20260510110055 | 11 | 108 | 0.0 | 1.6 | 0.00 | 0.00 | 0.00 | 99 | 1012.7 |
| 20260510110038 | 10 | 125 | 0.0 | 1.6 | 0.00 | 0.00 | 0.00 | 99 | 1012.5 |
| 20260510104651 | 10 | 125 | 0.0 | 1.6 | 0.00 | 0.00 | 0.00 | 99 | 1012.5 |
| 20260510104555 | 10 | 125 | 0.0 | 1.6 | 0.00 | 0.00 | 0.00 | 99 | 1012.5 |
| 20260510103055 | 10 | 0.0 | 0.0 | 0.00 | 0.00 | 0.00 | 99 | 1012.6 | |
| 20260510101555 | 10 | 90 | 0.0 | 1.6 | 0.00 | 0.00 | 0.00 | 99 | 1012.7 |
| 20260510100055 | 10 | 128 | 0.0 | 1.6 | 0.00 | 0.00 | 0.00 | 99 | 1012.6 |
| 20260510095638 | 10 | 92 | 1.6 | 1.6 | 0.00 | 0.00 | 0.00 | 99 | 1012.7 |
| 20260510094555 | 10 | 141 | 0.0 | 1.6 | 0.00 | 0.00 | 0.00 | 99 | 1012.5 |
| 20260510093303 | 10 | 92 | 1.6 | 1.6 | 0.00 | 0.00 | 0.00 | 99 | 1012.7 |
| 20260510093054 | 10 | 92 | 1.6 | 1.6 | 0.00 | 0.00 | 0.00 | 99 | 1012.7 |
| 20260510091554 | 10 | 111 | 0.0 | 1.6 | 0.00 | 0.00 | 0.00 | 99 | 1012.8 |
| 20260510090135 | 10 | 96 | 1.6 | 1.6 | 0.00 | 0.00 | 0.00 | 99 | 1012.9 |
| 20260510090054 | 10 | 96 | 1.6 | 1.6 | 0.00 | 0.00 | 0.00 | 99 | 1012.9 |
| 20260510084633 | 10 | 0.0 | 0.0 | 0.00 | 0.00 | 0.00 | 99 | 1012.9 | |
| 20260510084554 | 10 | 0.0 | 0.0 | 0.00 | 0.00 | 0.00 | 99 | 1012.9 | |
| 20260510083054 | 10 | 0.0 | 0.0 | 0.00 | 0.00 | 0.00 | 99 | 1012.9 | |
| 20260510081554 | 10 | 151 | 0.0 | 0.0 | 0.00 | 0.00 | 0.00 | 99 | 1013.0 |
| 20260510080055 | 11 | 157 | 1.6 | 1.6 | 0.00 | 0.00 | 0.00 | 99 | 1012.6 |
| 20260510074554 | 11 | 0.0 | 0.0 | 0.00 | 0.00 | 0.00 | 99 | 1012.0 | |
| 20260510073055 | 11 | 0.0 | 0.0 | 0.00 | 0.00 | 0.00 | 99 | 1012.0 | |
| 20260510071555 | 11 | 0.0 | 0.0 | 0.00 | 0.00 | 0.00 | 99 | 1012.3 | |
| 20260510070305 | 11 | 0.0 | 0.0 | 0.00 | 0.00 | 0.00 | 99 | 1012.1 | |
| 20260510070054 | 11 | 0.0 | 0.0 | 0.00 | 0.00 | 0.00 | 99 | 1012.1 | |
| 20260510064813 | 11 | 0.0 | 0.0 | 0.00 | 0.00 | 0.00 | 99 | 1012.2 | |
| 20260510064554 | 11 | 0.0 | 0.0 | 0.00 | 0.00 | 0.00 | 99 | 1012.2 | |
| 20260510064525 | 10 | 0.0 | 0.0 | 0.00 | 0.00 | 0.00 | 99 | 1012.3 | |
| 20260510064431 | 10 | 0.0 | 0.0 | 0.00 | 0.00 | 0.00 | 99 | 1012.3 | |
| 20260510063208 | 10 | 0.0 | 0.0 | 0.00 | 0.00 | 0.00 | 99 | 1012.3 | |
| 20260510063055 | 10 | 0.0 | 0.0 | 0.00 | 0.00 | 0.00 | 99 | 1012.3 | |
| 20260510061733 | 10 | 0.0 | 0.0 | 0.00 | 0.00 | 0.00 | 99 | 1012.2 | |
| 20260510061554 | 10 | 0.0 | 0.0 | 0.00 | 0.00 | 0.00 | 99 | 1012.2 | |
| 20260510060055 | 10 | 0.0 | 0.0 | 0.00 | 0.00 | 0.00 | 99 | 1012.0 | |
| 20260510054554 | 10 | 0.0 | 0.0 | 0.00 | 0.00 | 0.00 | 99 | 1012.0 | |
| 20260510054029 | 10 | 0.0 | 0.0 | 0.00 | 0.00 | 0.00 | 99 | 1012.1 | |
| 20260510053055 | 10 | 0.0 | 0.0 | 0.00 | 0.00 | 0.00 | 99 | 1012.1 | |
| 20260510051554 | 10 | 0.0 | 0.0 | 0.00 | 0.00 | 0.00 | 99 | 1012.1 | |
| 20260510050055 | 10 | 0.0 | 0.0 | 0.00 | 0.00 | 0.00 | 99 | 1012.2 | |
| 20260510044555 | 10 | 0.0 | 0.0 | 0.00 | 0.00 | 0.00 | 99 | 1012.2 | |
| 20260510043055 | 10 | 0.0 | 0.0 | 0.00 | 0.00 | 0.00 | 99 | 1012.2 | |
| 20260510041555 | 10 | 0.0 | 0.0 | 0.00 | 0.00 | 0.00 | 99 | 1012.1 | |
| 20260510040055 | 10 | 0.0 | 0.0 | 0.00 | 0.00 | 0.00 | 99 | 1012.1 | |
| 20260510034706 | 10 | 0.0 | 0.0 | 0.00 | 0.00 | 0.00 | 99 | 1012.1 | |
| 20260510034555 | 10 | 0.0 | 0.0 | 0.00 | 0.00 | 0.00 | 99 | 1012.1 | |
| 20260510033054 | 10 | 0.0 | 0.0 | 0.00 | 0.00 | 0.00 | 99 | 1011.8 | |
| 20260510031554 | 10 | 0.0 | 0.0 | 0.00 | 0.00 | 0.00 | 99 | 1011.8 | |
| 20260510030320 | 10 | 0.0 | 0.0 | 0.00 | 0.00 | 0.00 | 99 | 1012.0 | |
| 20260510030055 | 10 | 0.0 | 0.0 | 0.00 | 0.00 | 0.00 | 99 | 1012.0 | |
| 20260510024554 | 10 | 0.0 | 0.0 | 0.00 | 0.00 | 0.00 | 99 | 1012.1 | |
| 20260510023055 | 10 | 0.0 | 0.0 | 0.00 | 0.00 | 0.00 | 99 | 1012.0 | |
| 20260510021646 | 10 | 0.0 | 0.0 | 0.00 | 0.00 | 0.00 | 99 | 1011.9 | |
| 20260510021554 | 10 | 0.0 | 0.0 | 0.00 | 0.00 | 0.00 | 99 | 1011.9 | |
| 20260510020056 | 10 | 0.0 | 0.0 | 0.00 | 0.00 | 0.00 | 99 | 1011.9 | |
| 20260510015617 | 10 | 0.0 | 0.0 | 0.00 | 0.00 | 0.00 | 99 | 1011.9 | |
| 20260510014554 | 10 | 0.0 | 0.0 | 0.00 | 0.00 | 0.00 | 99 | 1011.9 | |
| 20260510013055 | 10 | 226 | 0.0 | 1.6 | 0.00 | 0.00 | 0.00 | 99 | 1011.7 |
| 20260510011554 | 10 | 0.0 | 0.0 | 0.00 | 0.00 | 0.00 | 99 | 1011.4 | |
| 20260510010055 | 11 | 0.0 | 0.0 | 0.00 | 0.00 | 0.00 | 99 | 1011.3 | |
| 20260510004554 | 12 | 0.0 | 0.0 | 0.00 | 0.00 | 0.00 | 99 | 1011.0 | |
| 20260510003055 | 12 | 109 | 0.0 | 1.6 | 0.00 | 0.00 | 0.00 | 99 | 1010.8 |
| 20260510001628 | 12 | 109 | 0.0 | 1.6 | 0.00 | 0.00 | 0.00 | 99 | 1010.8 |
| 20260510001555 | 12 | 109 | 0.0 | 1.6 | 0.00 | 0.00 | 0.00 | 99 | 1010.8 |
| 20260510000055 | 12 | 109 | 0.0 | 1.6 | 0.00 | 0.00 | 0.00 | 99 | 1010.8 |
| 20260509234555 | 12 | 109 | 0.0 | 1.6 | 0.00 | 0.00 | 0.00 | 99 | 1010.8 |
| 20260509233054 | 12 | 157 | 1.6 | 3.2 | 0.00 | 0.00 | 0.00 | 99 | 1010.8 |
| 20260509231629 | 12 | 39 | 1.6 | 1.6 | 0.00 | 0.00 | 0.00 | 99 | 1010.7 |
| 20260509231554 | 12 | 39 | 1.6 | 1.6 | 0.00 | 0.00 | 0.00 | 99 | 1010.7 |
| 20260509230055 | 12 | 87 | 1.6 | 3.2 | 0.00 | 0.00 | 0.00 | 99 | 1011.1 |
| 20260509224837 | 12 | 117 | 0.0 | 1.6 | 0.00 | 0.00 | 0.00 | 99 | 1011.1 |
| 20260509224554 | 12 | 117 | 0.0 | 1.6 | 0.00 | 0.00 | 0.00 | 99 | 1011.1 |
| 20260509223055 | 12 | 82 | 1.6 | 3.2 | 0.03 | 0.00 | 0.00 | 99 | 1010.9 |
| 20260509221810 | 12 | 67 | 1.6 | 3.2 | 0.10 | 0.00 | 0.00 | 99 | 1011.0 |
| 20260509221555 | 12 | 67 | 1.6 | 3.2 | 0.10 | 0.00 | 0.00 | 99 | 1011.0 |
| 20260509220259 | 12 | 114 | 1.6 | 3.2 | 0.30 | 0.00 | 0.00 | 99 | 1011.3 |
| 20260509220055 | 12 | 114 | 1.6 | 3.2 | 0.30 | 0.00 | 0.00 | 99 | 1011.3 |
| 20260509214555 | 12 | 106 | 0.0 | 1.6 | 0.69 | 0.00 | 0.00 | 99 | 1011.3 |
| 20260509214023 | 12 | 135 | 1.6 | 1.6 | 0.71 | 0.00 | 0.00 | 99 | 1011.2 |
| 20260509213055 | 12 | 114 | 1.6 | 4.8 | 0.38 | 0.00 | 0.00 | 99 | 1011.3 |
| 20260509211555 | 12 | 135 | 1.6 | 1.6 | 0.71 | 0.00 | 0.00 | 99 | 1011.2 |
| 20260509210055 | 12 | 169 | 0.0 | 1.6 | 0.03 | 0.00 | 0.00 | 99 | 1011.2 |
| 20260509204555 | 13 | 342 | 0.0 | 1.6 | 0.03 | 0.00 | 0.00 | 97 | 1011.5 |
| 20260509203055 | 13 | 342 | 0.0 | 1.6 | 0.03 | 0.00 | 0.00 | 97 | 1011.5 |
| 20260509201554 | 13 | 342 | 0.0 | 1.6 | 0.03 | 0.00 | 0.00 | 97 | 1011.5 |
| 20260509200055 | 13 | 342 | 0.0 | 1.6 | 0.03 | 0.00 | 0.00 | 97 | 1011.5 |
| 20260509194625 | 13 | 342 | 0.0 | 1.6 | 0.03 | 0.00 | 0.00 | 97 | 1011.5 |
| 20260509194554 | 13 | 342 | 0.0 | 1.6 | 0.03 | 0.00 | 0.00 | 97 | 1011.5 |
| 20260509193203 | 13 | 342 | 0.0 | 1.6 | 0.03 | 0.00 | 0.00 | 97 | 1011.5 |
| 20260509193055 | 13 | 342 | 0.0 | 1.6 | 0.03 | 0.00 | 0.00 | 97 | 1011.5 |
| 20260509191555 | 13 | 342 | 0.0 | 1.6 | 0.03 | 0.00 | 0.00 | 97 | 1011.5 |